Regional Weather Roundup
Issued by NWS Memphis, TN

Home | Current Version | Previous Version | Text Only | Print | Product List | Glossary On
Versions: 1 2 3 4 5 6 7 8 9 10 11 12 13 14 15 16 17 18 19 20 21 22 23 24 25 26 27 28 29 30 31 32 33 34 35 36 37 38 39 40 41 42 43 44 45 46 47 48 49 50
000
ASUS44 KMEG 250410
RWRMEG
MEMPHIS CWA HOURLY WEATHER ROUNDUP
NATIONAL WEATHER SERVICE MEMPHIS TN
1100 PM CDT SUN SEP 24 2017

...WEST TENNESSEE...

CITY           SKY/WX    TMP DP  RH WIND       PRES   REMARKS
MEMPHIS INTL   PTCLDY    76  68  76 E7        29.97F
NWS MEMPHIS      N/A     71 N/A N/A MISG        N/A
JACKSON        CLEAR     69  69 100 CALM      30.00S
COVINGTON      CLEAR     68  68 100 CALM      29.99S
SOMERVILLE     CLEAR     70  68  94 CALM      29.98S
BOLIVAR        CLEAR     68  66  94 CALM      29.99S FOG
LEXINGTON      CLEAR     68  68 100 CALM      30.00S FOG
SELMER         CLEAR     68  66  94 CALM      30.00S
SAVANNAH       CLEAR     68  68 100 CALM      29.99S
DYERSBURG      CLEAR     70  69  97 CALM      30.00S
PARIS          CLEAR     70  66  88 CALM      29.99F
HUNTINGDON     CLEAR     70  68  94 CALM      29.99F


...EASTERN ARKANSAS...

CITY           SKY/WX    TMP DP  RH WIND       PRES   REMARKS
JONESBORO      CLEAR     72  70  93 CALM      29.97S
WEST MEMPHIS   CLEAR     72  70  93 CALM      29.96S
BATESVILLE     CLEAR     73  67  81 CALM      29.98S
NEWPORT        CLEAR     68  67  96 N3        29.97R
BLYTHEVILLE    CLEAR     73  70  90 CALM      29.98F
SEARCY         CLEAR     72  69  90 E3        29.98S
STUTTGART      CLEAR     76  66  71 E8        29.96S
PINE BLUFF     CLEAR     72  66  81 CALM      29.95S
MONTICELLO     CLEAR     72  67  84 NE3       29.95S


...NORTH MISSISSIPPI...

CITY           SKY/WX    TMP DP  RH WIND       PRES   REMARKS
TUPELO         CLEAR     72  66  81 N3        29.98S
BATESVILLE     CLEAR     69  67  94 CALM      29.98S FOG
TUNICA           N/A    N/A N/A N/A CALM      29.97F
CLARKSDALE       N/A     73  73 100 NE3       29.96S
GREENWOOD      CLEAR     70  67  90 N3        29.95S
COLUMBUS       CLEAR     69  69 100 CALM      29.96F
STARKVILLE     CLEAR     70  68  94 E3        29.98F


...SOUTHEAST MISSOURI...

CITY           SKY/WX    TMP DP  RH WIND       PRES   REMARKS
KENNETT        CLEAR     72  70  94 CALM      29.96F
MALDEN         CLEAR     72  66  83 CALM      29.99S
WEST PLAINS    CLEAR     67  63  87 CALM      30.03R
POPLAR BLUFF   CLEAR     67  65  93 NE3       29.98F
CAPE GIRARDEAU CLEAR     67  64  90 CALM      29.98F


...NORTHWEST ALABAMA...

CITY           SKY/WX    TMP DP  RH WIND       PRES   REMARKS
MUSCLE SHOALS  CLOUDY    69  65  86 CALM      30.01F


...MIDDLE TENNESSEE...

CITY           SKY/WX    TMP DP  RH WIND       PRES   REMARKS
NASHVILLE      MOCLDY    73  67  81 CALM      30.02F
CLARKSVILLE    CLOUDY    70  67  90 CALM      30.01F
COLUMBIA       CLEAR     68 N/A N/A CALM      30.00S


...WESTERN KENTUCKY...

CITY           SKY/WX    TMP DP  RH WIND       PRES   REMARKS
PADUCAH        CLEAR     68  63  84 CALM      29.99S
FORT CAMPBELL  CLOUDY    72  69  93 E3        30.00F


...CENTRAL ARKANSAS...

CITY           SKY/WX    TMP DP  RH WIND       PRES   REMARKS
LITTLE ROCK    CLEAR     75  68  78 CALM      29.96R


SKY/WX REPORTED AS FAIR MEANS FEW OR NO CLOUDS BELOW
12 THOUSAND FEET.




USA.gov is the U.S. government's official web portal to all federal, state and local government web resources and services.